SCP
0 0 0 0 0 0 0 0 0 0 0 0 0 0 0 0 0 0 0 0 0 0 0 0 0 0 0 0 0 0 0 0 0 0 0 0 0 0 0 0 0 0 0 0 0 0 0 0 0
0 0 0 0 0 0 0 0 0 0 0 0 0 0 0 0 0 0 0 0 0 0 0 0 0 0 0 0 0 0 0 0 0 0 0 0 0 0 0 0 0 0 0 0 0 0 0 0 0
0 0 0 0 0 0 0 0 0 0 0 0 0 0 0 0 0 0 0 0 0 0 0 0 0 0 0 0 0 0 0 0 0 0 0 0 0 0 0 0 0 0 0 0 0 0 0 0 0
0 0 0 0 0 0 0 0 0 0 0 0 0 0 0 0 0 0 0 0 0 0 0 0 0 0 0 0 0 0 0 0 0 0 0 0 0 0 0 0 0 0 0 0 0 0 0 0 0
0 0 0 0 0 0 0 0 0 0 0 0 0 0 0 0 0 0 0 0 0 0 0 0 0 0 0 0 0 0 0 0 0 0 0 0 0 0 0 0 0 0 0 0 0 0 0 0 0
0 0 0 0 0 0 0 0 0 0 0 0 0 0 0 0 0 0 0 0 0 0 0 0 0 0 0 0 0 0 0 0 0 0 0 0 0 0 0 0 0 0 0 0 0 0 0 0 0
0 0 0 0 0 0 0 0 0 0 0 0 0 0 0 0 0 0 0 0 0 0 0 0 0 0 0 0 0 0 0 0 0 0 0 0 0 0 0 0 0 0 0 0 0 0 0 0 0
0 0 0 0 0 0 0 0 0 0 0 0 0 0 0 0 0 0 0 0 0 0 0 0 0 0 0 0 0 0 0 0 0 0 0 0 0 0 0 0 0 0 0 0 0 0 0 0 0
0 0 0 0 0 0 0 0 0 0 0 0 0 0 0 0 0 0 0 0 0 0 0 0 0 0 0 0 0 0 0 0 0 0 0 0 0 0 0 0 0 0 0 0 0 0 0 0 0
0 0 0 0 0 0 0 0 0 0 0 0 0 0 0 0 0 0 0 0 0 0 0 0 0 0 0 -0 0 0 0 0 0 0 0 0 0 0 0 0 0 0 0 0 0 0 0 0 0
0 0 0 0 0 0 0 0 0 0 0 0 0 0 0 0 0 0 0 0 0 0 0 0 0 0 0 -0 -0 -0 0 0 -0 0 0 0 0 0 0 0 0 0 0 0 0 0 0 0 0
0 0 0 0 0 0 0 0 0 0 0 0 0 0 0 0 0 0 0 0 0 0 0 0 0 0 -0 -0 -0 -0 -0 -0 0 0 0 0 -0 0 0 0 0 0 0 0 0 0 -0 -0 -0
0 0 0 0 0 0 0 0 0 0 0 0 0 0 0 0 0 0 0 0 0 0 0 0 -0 -0 -0 -0 -0 -0 -0 -0 -0 0 0 0 -0 -0 -0 0 0 0 0 0 0 0 0 -0 -0
0 0 0 0 0 0 0 0 0 0 0 0 0 0 0 0 0 0 0 0 0 0 0 -0 -0 -0 -0 -0 -0 -0 -0 -0 0 0 0 0 0 0 0 0 0 0 0 0 0 0 0 0 0
0 0 0 0 0 0 0 0 0 0 0 0 0 0 0 0 0 0 0 0 0 0 0 0 0 0 0 0 0 0 0 0 0 0 0 0 0 0 0 0 0 0 0 0 0 0 0 0 0
0 0 0 0 0 0 0 0 0 0 0 0 0 0 0 0 0 0 0 0 0 0 0 0 0 0 0 0 0 0 0 0 0 0 0 0 0 0 0 0 0 0 0 0 0 0 0 0 0
0 0 0 0 0 0 0 0 0 0 0 0 0 0 0 0 0 0 0 0 0 0 0 0 0 0 0 0 0 0 0 0 0 0 0 0 0 0 0 0 0 0 0 0 0 0 0 0 0
0 0 0 0 0 0 0 0 0 0 0 0 0 0 0 0 0 0 0 0 0 0 0 0 0 0 0 0 0 0 0 0 0 0 0 0 0 0 -0 -0 0 0 0 0 0 0 0 0 0
0 0 0 0 0 0 0 0 0 0 0 0 0 0 0 0 0 0 0 0 0 0 0 0 0 0 0 0 0 0 0 0 0 0 0 0 0 0 0 0 0 0 0 0 0 0 0 0 0
0 0 0 0 0 0 0 0 0 0 0 0 0 0 0 0 0 0 0 0 0 0 0 0 0 0 0 0 0 0 0 0 0 0 0 0 0 0 0 0 0 0 0 0 0 0 0 0 0
0 0 0 0 0 0 0 0 0 0 0 0 0 0 0 0 0 0 0 0 0 0 0 0 0 0 0 0 0 0 0 0 0 0 0 0 0 0 0 0 0 0 0 0 0 0 0 0 0
0 0 0 0 0 0 0 0 0 0 0 0 0 0 0 0 0 0 0 0 0 0 0 0 0 0 0 0 0 0 0 0 0 0 0 0 0 0 0 0 0 0 0 0 0 0 0 0 0
0 0 0 0 0 0 0 0 0 0 0 0 0 0 0 0 0 0 0 0 0 0 0 0 0 0 0 0 0 0 0 0 0 0 0 0 0 0 0 0 0 0 0 0 0 0 0 0 0
0 0 0 0 0 0 0 0 0 0 0 0 0 0 0 0 0 0 0 0 0 0 0 0 0 0 0 0 0 0 0 0 0 0 0 0 0 0 0 0 0 0 0 0 0 0 0 0 0
0 0 0 0 0 0 0 0 0 0 0 0 0 0 0 0 0 0 0 0 0 0 0 0 0 0 0 0 0 0 0 0 0 0 0 0 0 0 0 0 0 0 0 0 0 0 0 0 0
0 0 0 0 0 0 0 0 0 0 0 0 0 0 0 0 0 0 0 0 0 0 0 0 0 0 0 0 0 0 0 0 0 0 0 0 0 0 0 0 0 0 0 0 0 0 0 0 0
0 0 0 0 0 0 0 0 0 0 0 0 0 0 0 0 0 0 0 0 0 0 0 0 0 0 0 0 0 0 0 0 0 0 0 0 0 0 0 0 0 0 0 0 0 0 0 0 0
0 0 0 0 0 0 0 0 0 0 0 0 0 0 0 0 0 0 0 0 0 0 0 0 0 0 0 0 0 0 0 0 0 0 0 0 0 0 0 0 0 0 0 0 0 0 0 0 0
0 0 0 0 0 0 0 0 0 0 0 0 0 0 0 0 0 0 0 0 0 0 0 0 0 0 0 0 0 0 0 0 0 0 0 0 0 0 0 0 0 0 0 0 0 0 0 0 0
0 0 0 0 0 0 0 0 0 0 0 0 0 0 0 0 0 0 0 0 0 0 0 0 0 0 0 0 0 0 0 0 0 0 0 0 0 0 0 0 0 0 0 0 0 0 0 0 0
Wind_Speed
4 2 2 3 6 6 3 1 1 3 5 5 8 9 9 7 5 6 2 6 8 6 5 9 13 14 14 14 15 15 15 14 14 14 14 13 12 12 11 11 11 11 10 10 10 9 9 9 9
2 1 3 4 6 4 2 1 4 5 6 7 8 8 8 8 6 7 4 7 8 7 6 8 13 14 14 14 14 14 14 13 13 13 13 12 11 11 11 11 11 10 10 9 9 8 8 8 8
2 0 3 4 3 4 3 2 5 6 5 5 6 6 6 5 4 4 6 10 8 7 6 9 13 14 13 13 13 13 13 12 12 12 12 11 10 10 10 10 9 9 9 8 8 7 7 7 7
2 4 5 5 4 1 4 4 6 6 6 6 7 7 5 4 3 7 10 10 9 6 5 8 13 13 13 12 12 12 12 11 11 11 10 10 9 9 9 9 8 8 7 7 7 6 6 6 7
4 5 5 4 3 2 2 3 5 7 5 7 8 8 5 4 9 12 10 10 10 6 5 8 13 12 12 12 11 11 10 10 10 9 9 8 7 7 7 7 7 6 6 6 5 5 5 5 6
4 5 5 3 3 2 3 4 9 10 9 8 8 7 4 4 9 9 9 8 8 8 6 7 12 12 11 11 10 10 9 9 8 7 6 6 5 5 5 5 5 5 5 5 5 5 5 5 5
4 4 3 3 4 3 2 3 6 8 7 4 5 6 4 4 6 8 9 8 7 7 6 5 5 7 10 10 9 8 8 7 6 5 4 4 3 2 2 3 3 4 4 4 4 5 5 5 5
4 5 3 2 4 2 1 4 5 8 6 4 4 7 5 5 6 7 7 7 6 6 5 4 3 3 3 4 7 7 6 5 4 3 2 2 1 1 0 1 2 3 4 4 5 6 6 6 6
4 6 2 2 4 2 3 6 4 5 6 3 4 5 8 10 8 7 6 5 4 5 3 4 3 3 2 2 3 3 3 2 1 1 1 1 1 1 2 3 3 4 5 6 7 7 7 6 5
5 4 2 2 5 4 5 7 6 5 7 6 7 7 9 9 9 8 8 7 5 5 4 3 3 3 2 2 2 1 1 1 1 1 1 1 1 1 1 4 4 5 7 7 8 8 7 4 2
3 4 1 2 4 6 7 5 4 8 6 7 10 10 9 8 8 8 7 7 6 6 5 4 4 3 3 2 2 1 1 1 1 2 2 2 1 1 2 2 3 4 6 4 6 6 3 3 2
3 2 3 4 5 6 6 4 4 5 6 7 10 9 8 8 7 7 7 6 6 6 5 5 5 4 3 3 2 2 1 1 2 2 2 2 2 2 2 2 2 2 2 3 3 3 4 3 3
3 2 4 5 7 8 9 7 5 4 7 9 9 9 7 7 7 6 6 5 6 6 5 5 5 4 3 3 2 2 2 2 2 2 3 3 3 2 2 2 3 3 2 3 3 3 4 4 3
3 4 4 5 6 6 9 5 5 3 8 10 9 7 7 7 7 6 6 5 5 5 5 5 5 4 4 3 2 2 2 2 3 3 3 4 3 3 3 3 3 3 3 3 3 4 3 3 3
4 6 4 3 4 4 7 6 3 4 7 9 7 6 6 5 6 7 7 7 6 6 5 5 6 5 5 4 3 3 3 3 3 3 4 4 4 4 3 3 3 3 3 4 4 5 4 4 4
3 4 2 1 3 2 7 4 2 3 8 7 5 5 5 5 6 6 6 6 6 7 6 5 6 6 5 4 4 3 3 4 3 3 4 5 4 4 4 3 3 3 3 4 3 3 3 4 3
3 2 3 1 1 2 5 4 3 4 7 7 5 5 5 5 5 5 6 7 7 7 7 6 5 6 5 5 4 4 4 4 3 3 3 4 5 5 4 3 3 3 4 4 3 3 3 3 3
2 3 2 2 2 4 5 4 4 5 7 7 6 5 5 6 6 6 7 7 7 6 6 6 5 5 5 4 4 3 4 3 3 3 3 4 4 5 4 3 4 4 3 4 3 3 3 2 2
4 4 3 2 3 4 5 5 5 5 6 6 6 6 6 6 5 6 7 6 6 6 6 5 5 4 4 3 3 3 2 2 2 2 3 4 4 4 4 3 3 4 3 3 3 3 4 4 3
4 4 2 2 3 3 4 3 4 6 8 9 10 8 7 5 5 5 6 6 6 6 6 6 5 4 4 3 2 2 2 1 1 1 3 3 4 3 4 3 3 3 3 4 4 3 3 3 4
2 5 5 4 1 3 4 1 3 4 5 7 8 9 8 10 10 8 7 6 6 6 6 6 5 5 4 4 3 3 3 3 2 2 2 2 3 3 3 3 3 3 3 3 3 3 3 3 3
2 3 6 6 4 1 3 3 6 5 5 8 9 9 9 9 9 9 8 7 7 6 6 6 6 5 4 4 4 4 3 2 1 0 1 2 3 3 3 3 3 3 3 3 3 3 2 3 2
3 3 3 3 3 1 1 3 6 4 6 9 10 11 10 10 11 10 9 8 7 7 6 6 5 5 4 4 5 5 3 2 1 1 2 2 3 3 3 3 3 3 2 3 3 3 3 2 2
4 4 4 4 4 1 5 4 6 6 11 11 11 11 11 11 10 9 8 7 6 6 6 6 6 4 4 5 5 5 5 4 3 2 2 2 2 3 3 3 3 2 2 2 2 3 3 2 3
5 5 3 3 2 5 3 3 8 8 9 12 13 12 12 11 10 10 9 8 7 7 7 6 7 5 4 5 4 4 4 4 4 3 3 2 1 1 2 2 2 2 2 2 3 3 3 3 3
4 7 6 4 4 4 1 4 7 5 7 9 11 11 11 11 10 11 11 10 9 9 8 7 7 5 4 5 4 3 4 3 3 3 3 2 1 1 1 2 2 2 3 3 3 3 3 3 3
4 3 5 5 2 0 3 3 5 1 4 7 9 10 11 12 12 12 11 10 9 9 8 8 8 6 5 5 4 3 4 4 3 3 3 2 1 1 2 2 3 3 3 3 4 3 3 3 3
4 6 4 4 3 1 3 3 4 4 6 8 10 12 11 11 11 11 10 10 9 8 7 7 7 7 6 5 5 4 3 4 4 4 3 3 2 2 2 2 3 3 3 3 3 3 3 3 3
3 2 4 3 4 4 2 6 6 9 9 11 13 13 13 13 12 11 10 9 8 7 7 6 6 6 5 5 4 5 4 3 4 3 3 2 2 2 2 2 3 3 3 3 3 3 3 3 3
5 6 6 4 3 3 3 7 5 7 9 10 11 11 12 13 12 11 10 9 8 8 7 7 6 6 6 5 5 5 4 4 4 3 2 3 3 2 2 2 3 3 3 3 3 3 3 3 3
Wind_Direction
309 333 81 60 55 55 65 30 126 84 73 66 72 80 82 67 87 118 152 131 121 115 108 107 105 102 98 96 93 93 93 92 90 89 87 84 80 77 76 74 74 71 68 64 61 58 55 52 49
321 348 65 58 77 79 46 76 85 82 125 121 84 76 75 71 79 106 122 130 122 119 115 114 110 105 101 98 96 96 94 92 90 89 88 85 81 77 74 71 70 68 64 60 57 55 51 47 43
310 89 77 66 86 130 135 133 105 91 94 92 86 59 66 88 97 115 140 133 121 115 113 119 114 110 105 102 100 99 97 94 92 90 89 86 83 79 74 70 67 65 62 57 53 51 47 40 37
53 45 55 70 79 142 150 149 120 102 61 57 94 71 61 71 111 132 136 129 122 119 118 122 118 113 109 107 105 103 101 98 96 94 91 89 84 78 73 70 67 64 59 55 48 43 39 30 27
66 70 61 63 66 37 96 114 98 88 76 72 86 90 70 54 108 127 131 131 129 129 128 128 124 120 117 114 111 110 108 105 101 97 93 89 84 79 74 71 66 60 52 46 40 30 26 19 15
57 65 81 91 93 57 60 98 97 92 98 94 89 95 86 108 122 132 133 135 137 137 135 131 131 130 126 124 122 119 117 114 108 102 98 96 89 82 78 74 64 54 46 35 24 15 12 9 3
97 87 100 124 114 87 107 103 99 110 104 96 107 94 104 108 130 132 129 133 138 140 136 134 136 134 135 135 132 128 126 124 119 114 109 106 105 93 84 74 59 44 31 15 4 359 352 349 352
119 96 76 90 109 102 125 95 104 108 107 124 111 120 144 157 137 123 124 125 131 138 138 139 137 134 134 140 144 139 136 135 131 132 133 124 118 98 357 340 352 8 1 349 342 337 337 341 347
82 78 94 138 129 139 115 98 94 89 99 82 84 122 145 144 129 121 121 114 125 133 145 152 155 155 159 171 160 140 133 111 95 79 112 98 2 336 317 305 313 334 339 338 336 331 330 337 347
79 101 168 168 149 135 103 103 115 94 88 85 89 103 128 132 131 133 137 136 144 151 163 165 163 167 168 167 102 71 50 30 31 33 29 29 24 307 301 320 336 346 352 349 348 344 340 343 349
102 135 142 104 126 120 103 92 95 114 113 143 140 139 136 135 135 139 143 142 151 152 154 159 157 155 150 122 107 85 63 45 22 29 40 40 42 22 11 1 352 353 357 357 359 3 359 1 5
84 97 128 117 108 104 106 106 80 108 152 152 141 139 133 137 144 147 146 145 141 137 144 147 140 133 127 115 107 100 84 61 36 26 47 59 53 45 27 13 359 3 354 359 5 7 9 16 24
90 101 96 96 94 100 99 95 98 106 126 127 129 131 141 140 144 146 147 140 132 125 127 132 131 124 111 99 93 89 75 69 55 44 51 67 69 61 49 32 27 20 17 20 16 17 22 27 31
140 111 85 93 96 98 101 95 88 118 130 130 133 135 138 139 141 138 138 135 130 127 128 121 114 113 106 100 99 93 83 74 59 47 49 62 67 62 53 41 31 19 19 25 34 27 26 26 32
98 93 74 82 103 108 96 75 103 145 130 131 139 138 133 141 142 149 152 145 139 134 129 118 117 106 101 98 94 86 79 77 64 51 52 54 59 61 61 49 34 15 17 26 34 27 25 27 27
60 72 83 8 109 111 99 131 201 154 134 135 142 139 136 141 147 152 147 141 134 126 121 116 117 105 97 93 89 82 77 74 64 53 51 54 57 63 62 54 35 21 30 28 34 28 27 22 18
45 117 147 194 141 117 112 156 202 168 145 151 156 151 140 133 134 144 141 140 133 129 124 114 110 105 99 94 88 80 73 69 64 55 50 52 52 58 66 56 34 32 34 25 27 30 30 19 7
174 145 146 172 190 128 127 166 181 177 160 167 164 156 147 142 149 144 136 133 129 126 119 115 110 106 100 88 76 65 57 52 54 57 57 58 53 55 62 57 36 38 39 23 24 28 24 23 4
146 135 138 176 182 136 153 171 185 184 167 170 167 166 163 160 156 141 135 133 125 118 117 120 118 115 108 95 90 82 64 45 45 53 60 60 58 58 61 54 41 41 46 29 27 31 25 15 10
132 129 139 160 193 139 154 193 197 188 186 181 176 177 176 162 148 147 141 141 134 133 129 126 126 124 120 122 127 125 117 90 72 45 42 47 56 53 63 58 49 45 48 34 31 39 34 14 24
160 170 175 164 117 90 114 297 244 216 192 185 182 180 178 169 161 159 151 144 138 142 147 142 137 130 127 119 97 78 62 47 35 30 20 14 44 48 55 59 58 51 56 42 31 44 57 31 10
196 196 167 154 124 187 162 204 255 217 202 193 188 183 184 171 163 162 158 154 153 157 152 141 139 135 130 120 114 116 116 121 174 165 32 21 34 43 52 61 61 56 51 43 33 52 54 66 31
186 179 166 160 135 95 197 168 264 200 208 205 193 186 183 176 168 166 166 163 158 152 147 145 136 133 133 125 127 121 119 131 108 73 65 41 22 27 41 58 61 52 44 42 41 45 48 57 63
131 66 49 52 80 257 223 179 256 210 206 197 192 183 180 176 167 164 162 153 149 144 140 141 136 137 139 131 133 135 135 130 115 101 89 51 22 15 22 43 48 45 40 40 42 47 51 51 57
103 91 54 20 10 254 229 189 245 227 203 189 184 180 178 175 165 162 162 162 157 152 151 147 142 140 141 133 135 144 141 139 142 141 130 114 65 26 9 34 36 31 31 42 46 48 41 40 47
168 138 153 177 215 273 282 225 260 252 196 178 174 171 169 172 169 171 172 169 165 162 158 153 150 149 148 141 142 138 135 133 140 144 140 140 142 153 50 51 46 40 43 44 44 46 38 42 39
140 169 171 142 170 267 281 285 309 17 143 160 163 165 173 176 175 175 173 171 168 166 165 163 156 153 157 154 140 131 133 134 136 134 127 131 139 131 82 63 52 42 45 47 52 48 35 41 39
149 153 110 121 148 239 289 255 237 220 187 176 173 177 179 177 177 175 173 173 172 168 164 162 158 162 162 157 151 141 141 140 135 124 123 121 118 96 84 67 64 54 47 45 52 42 28 43 28
151 140 130 135 159 154 241 268 229 203 193 184 187 183 177 176 178 175 175 174 168 162 161 164 164 157 156 154 142 130 135 134 121 117 126 127 113 107 97 87 79 67 51 43 54 46 41 42 26
175 181 154 153 209 167 176 266 265 200 190 183 185 182 179 177 176 172 171 166 164 166 168 169 166 162 162 155 141 138 137 127 116 119 126 120 111 106 107 96 84 71 57 50 58 52 46 51 39